Saipan, MP

9:24 PM ChST on June 19, 2018 (GMT +1000)
Saipan International

Weather History for PGSN - June, 2018

Change the Weather History Date:

Thursday, June 14, 2018

  Actual Average Record
Temperature  
Mean Temperature 84 °F -  
Max Temperature 88 °F 85 °F 93 °F (2017)
Min Temperature 80 °F 76 °F 75 °F (2000)
Cooling Degree Days 19    
Growing Degree Days 34 (Base 50)    
Moisture  
Dew Point 79 °F    
Average Humidity 85    
Maximum Humidity 94    
Minimum Humidity 75    
Precipitation  
Precipitation 0.03 in - - ()
Sea Level Pressure  
Sea Level Pressure 29.93 in    
Wind  
Wind Speed 10 mph (East)    
Max Wind Speed 16 mph    
Max Gust Speed 22 mph    
Visibility 10 miles    
Events      
Averages and records for this station are not official NWS values.
T = Trace of Precipitation, MM = Missing Value Source: NWS Daily Summary

Daily Weather History Graph

Daily Weather History Graph

Search for Another Location

Airport or City:

Astronomy

Jun. 14, 2018 Rise Set
Actual Time 5:46 AM ChST 6:47 PM ChST
Civil Twilight 5:23 AM ChST 7:11 PM ChST
Nautical Twilight 4:55 AM ChST 7:39 PM ChST
Astronomical Twilight 4:26 AM ChST 8:08 PM ChST
Moon 5:57 AM ChST (6/14) 7:13 PM ChST (6/14)
Length of Visible Light 13h 48m
Length of Day
13h 01m
New Moon, 0% of the Moon is Illuminated
Jun 14
New Moon
Jun 20
First Quarter
Jun 28
Full
Jul 6
Last Quarter
Jul 13
New

Hourly Weather History & Observations

Time (ChST) Temp. Heat Index Dew Point Humidity Pressure Visibility Wind Dir Wind Speed Gust Speed Precip Events Conditions
12:54 AM 81.0 °F 88.6 °F 78.1 °F 91% 29.95 in 10.0 mi East 8.1 mph - N/A   Scattered Clouds
1:54 AM 81.0 °F 88.6 °F 78.1 °F 91% 29.92 in 10.0 mi East 8.1 mph - N/A   Scattered Clouds
2:54 AM 80.1 °F 86.4 °F 78.1 °F 94% 29.91 in 10.0 mi East 8.1 mph - N/A   Scattered Clouds
3:54 AM 80.1 °F 85.8 °F 77.0 °F 90% 29.91 in 10.0 mi ENE 8.1 mph - N/A   Partly Cloudy
4:54 AM 80.1 °F 86.4 °F 78.1 °F 94% 29.91 in 10.0 mi ENE 9.2 mph - N/A   Partly Cloudy
5:54 AM 80.1 °F 86.4 °F 78.1 °F 94% 29.92 in 10.0 mi East 9.2 mph - N/A   Scattered Clouds
6:54 AM 82.0 °F 91.0 °F 78.1 °F 88% 29.93 in 10.0 mi East 9.2 mph - N/A   Partly Cloudy
7:54 AM 84.0 °F 96.0 °F 79.0 °F 85% 29.93 in 10.0 mi East 11.5 mph - N/A   Partly Cloudy
8:54 AM 84.9 °F 96.6 °F 78.1 °F 80% 29.94 in 10.0 mi East 11.5 mph - N/A   Partly Cloudy
9:54 AM 87.1 °F 101.5 °F 79.0 °F 77% 29.95 in 10.0 mi East 15.0 mph 21.9 mph N/A   Partly Cloudy
10:54 AM 87.1 °F 103.2 °F 80.1 °F 80% 29.95 in 10.0 mi East 12.7 mph - N/A   Scattered Clouds
11:54 AM 88.0 °F 104.3 °F 80.1 °F 77% 29.94 in 10.0 mi East 15.0 mph - N/A   Scattered Clouds
12:54 PM 88.0 °F 103.1 °F 79.0 °F 75% 29.93 in 10.0 mi East 13.8 mph - N/A   Partly Cloudy
1:54 PM 87.1 °F 101.5 °F 79.0 °F 77% 29.91 in 10.0 mi East 16.1 mph - N/A   Scattered Clouds
2:54 PM 88.0 °F 103.1 °F 79.0 °F 75% 29.90 in 10.0 mi East 13.8 mph - N/A   Scattered Clouds
3:54 PM 88.0 °F 103.1 °F 79.0 °F 75% 29.88 in 10.0 mi ESE 15.0 mph - N/A   Scattered Clouds
4:54 PM 87.1 °F 101.5 °F 79.0 °F 77% 29.89 in 10.0 mi East 13.8 mph - N/A   Scattered Clouds
5:54 PM 84.9 °F 97.5 °F 79.0 °F 82% 29.91 in 10.0 mi ESE 11.5 mph - N/A   Scattered Clouds
6:54 PM 82.9 °F 93.8 °F 79.0 °F 88% 29.92 in 10.0 mi East 12.7 mph - N/A   Scattered Clouds
7:54 PM 82.9 °F 93.8 °F 79.0 °F 88% 29.94 in 10.0 mi East 11.5 mph - N/A   Scattered Clouds
8:54 PM 80.1 °F 86.4 °F 78.1 °F 94% 29.96 in 10.0 mi East 8.1 mph - 0.02 in   Scattered Clouds
9:54 PM 81.0 °F 89.2 °F 79.0 °F 94% 29.97 in 10.0 mi East 8.1 mph - N/A   Partly Cloudy
10:54 PM 82.0 °F 92.8 °F 80.1 °F 94% 29.98 in 10.0 mi East 6.9 mph - N/A   Scattered Clouds
11:54 PM 80.1 °F 85.8 °F 77.0 °F 90% 29.97 in 10.0 mi ESE 6.9 mph - 0.01 in   Scattered Clouds